Weather History for Plymouth, NH

Change the Weather History Date:

Saturday, May 25, 2013

  Actual Average (KLCI) Record (KLCI)
Temperature  
Mean Temperature 40 °F -  
Max Temperature 46 °F 68 °F 90 °F (1991)
Min Temperature 34 °F 47 °F 35 °F (1992)
Degree Days  
Heating Degree Days 25    
Moisture  
Dew Point 40 °F    
Average Humidity 87    
Maximum Humidity 97    
Minimum Humidity 77    
Precipitation  
Precipitation 0.56 in - - ()
Sea Level Pressure  
Sea Level Pressure 29.80 in    
Wind  
Wind Speed 8 mph (WNW)    
Max Wind Speed 16 mph    
Max Gust Speed 24 mph    
Visibility 8 miles    
Events Rain , Snow , Thunderstorm    
Averages and records for this station are not official NWS values.
T = Trace of Precipitation, MM = Missing Value Source: NWS Daily Summary

Daily Weather History Graph

Daily Weather History Graph

Search for Another Location

Airport:

Trip Planner

Search our weather history database for the weather conditions in past years. The results will help you decide how hot, cold, wet, or windy it might be!

Date:

Astronomy

May. 25, 2013 Rise Set
Actual Time 5:12 AM EDT 8:16 PM EDT
Civil Twilight 4:37 AM EDT 8:50 PM EDT
Nautical Twilight 3:53 AM EDT 9:35 PM EDT
Astronomical Twilight 3:01 AM EDT 10:28 PM EDT
Moon 9:00 PM EDT (5/25) 5:36 AM EDT (5/25)
Length of Visible Light 16h 12m
Length of Day
15h 03m
Full, 100% of the Moon is Illuminated
May 25
Full
May 31
Last Quarter
Jun 8
New
Jun 16
First Quarter
Jun 23
Full

Hourly Weather History & Observations

Time (EDT) Temp. Windchill Dew Point Humidity Pressure Visibility Wind Dir Wind Speed Gust Speed Precip Events Conditions
12:15 AM 46.6 °F - 43.9 °F 90% 29.87 in 10.0 mi West 5.8 mph - N/A Rain Rain
12:35 AM 46.6 °F - 43.9 °F 90% 29.87 in 7.0 mi WNW 3.5 mph - N/A   Light Drizzle
12:55 AM 46.6 °F - 44.1 °F 91% 29.88 in 7.0 mi West 3.5 mph - 0.01 in Rain Rain
1:15 AM 46.4 °F 42.4 °F 44.1 °F 92% 29.86 in 5.0 mi NW 8.1 mph - 0.02 in Rain Rain
1:35 AM 46.2 °F 44.1 °F 44.2 °F 93% 29.86 in 10.0 mi West 4.6 mph - 0.03 in   Light Drizzle
1:55 AM 46.6 °F - 44.1 °F 91% 29.86 in 10.0 mi WNW 3.5 mph - 0.03 in   Overcast
2:15 AM 46.4 °F 43.5 °F 43.9 °F 91% 29.84 in 10.0 mi WNW 5.8 mph - N/A   Drizzle
2:35 AM 46.2 °F 43.3 °F 43.9 °F 92% 29.83 in 10.0 mi West 5.8 mph - N/A   Light Drizzle
2:55 AM 46.4 °F 43.5 °F 43.7 °F 90% 29.84 in 10.0 mi West 5.8 mph - N/A Rain Rain
3:15 AM 46.0 °F 41.9 °F 43.5 °F 91% 29.84 in 7.0 mi West 8.1 mph - N/A Rain Heavy Rain
3:35 AM 45.7 °F 41.0 °F 43.7 °F 93% 29.83 in 7.0 mi West 9.2 mph 16.1 mph 0.03 in Rain Light Rain
3:55 AM 45.7 °F 42.7 °F 43.3 °F 92% 29.84 in 10.0 mi West 5.8 mph - 0.03 in Rain Light Rain
4:15 AM 45.7 °F 41.0 °F 43.2 °F 91% 29.83 in 7.0 mi West 9.2 mph - 0.01 in Rain Light Rain
4:35 AM 45.5 °F 40.3 °F 43.0 °F 91% 29.82 in 5.0 mi West 10.4 mph - 0.02 in   Drizzle
4:55 AM 45.5 °F 40.8 °F 42.8 °F 90% 29.82 in 10.0 mi West 9.2 mph - 0.02 in   Overcast
5:15 AM 45.5 °F 43.2 °F 42.8 °F 90% 29.82 in 10.0 mi WNW 4.6 mph - N/A Rain Light Rain
5:35 AM 45.5 °F 41.8 °F 42.8 °F 90% 29.83 in 10.0 mi West 6.9 mph - 0.01 in Rain Rain
5:55 AM 45.0 °F 41.2 °F 42.8 °F 92% 29.82 in 5.0 mi WNW 6.9 mph - 0.06 in Rain Rain
6:15 AM 45.0 °F 41.8 °F 43.0 °F 93% 29.82 in 7.0 mi WNW 5.8 mph - 0.02 in Rain Light Rain
6:35 AM 45.1 °F 42.8 °F 42.8 °F 91% 29.82 in 7.0 mi WNW 4.6 mph - 0.04 in Rain Rain
6:55 AM 45.5 °F 41.3 °F 42.8 °F 90% 29.82 in 10.0 mi West 8.1 mph - 0.06 in Rain Light Rain
7:15 AM 45.1 °F 40.8 °F 42.8 °F 91% 29.81 in 5.0 mi WNW 8.1 mph - 0.02 in Rain Rain
7:35 AM 45.0 °F 41.8 °F 42.8 °F 92% 29.81 in 5.0 mi WNW 5.8 mph - 0.06 in Rain Rain
7:55 AM 45.7 °F 41.0 °F 43.0 °F 90% 29.81 in 10.0 mi WNW 9.2 mph - 0.08 in Rain Light Rain
8:15 AM 45.7 °F 42.0 °F 42.8 °F 90% 29.81 in 10.0 mi West 6.9 mph - N/A   Overcast
8:35 AM 45.9 °F 41.7 °F 42.8 °F 89% 29.81 in 10.0 mi West 8.1 mph - N/A Rain Light Rain
8:55 AM 45.7 °F 42.0 °F 42.6 °F 89% 29.81 in 5.0 mi West 6.9 mph - 0.01 in Rain Light Rain
9:15 AM 45.5 °F 41.3 °F 42.6 °F 90% 29.81 in 7.0 mi West 8.1 mph - N/A   Overcast
9:35 AM 45.5 °F 41.3 °F 42.6 °F 90% 29.81 in 5.0 mi West 8.1 mph 16.1 mph N/A Rain Light Rain
9:55 AM 45.7 °F 41.5 °F 42.8 °F 90% 29.80 in 7.0 mi West 8.1 mph 17.3 mph N/A Rain Light Rain
10:15 AM 45.7 °F 41.5 °F 42.4 °F 88% 29.80 in 7.0 mi West 8.1 mph - N/A Rain Light Rain
10:35 AM 45.9 °F 41.2 °F 42.8 °F 89% 29.79 in 5.0 mi West 9.2 mph - 0.01 in Rain Light Rain
10:55 AM 45.9 °F 42.3 °F 42.8 °F 89% 29.79 in 7.0 mi West 6.9 mph - 0.01 in Rain Light Rain
11:15 AM 45.7 °F 40.6 °F 42.1 °F 87% 29.80 in 10.0 mi West 10.4 mph - N/A Rain Light Rain
11:35 AM 45.5 °F 40.8 °F 41.9 °F 87% 29.80 in 10.0 mi West 9.2 mph - N/A   Light Drizzle
11:55 AM 45.5 °F 39.9 °F 42.4 °F 89% 29.79 in 5.0 mi West 11.5 mph - 0.01 in Rain Light Rain
12:15 PM 45.3 °F 39.7 °F 41.9 °F 88% 29.79 in 10.0 mi West 11.5 mph 18.4 mph N/A Rain Light Rain
12:35 PM 45.5 °F 40.3 °F 41.9 °F 87% 29.78 in 10.0 mi West 10.4 mph 18.4 mph N/A   Overcast
12:55 PM 45.5 °F 39.9 °F 41.5 °F 86% 29.77 in 10.0 mi WNW 11.5 mph 20.7 mph N/A Rain Light Rain
1:15 PM 45.7 °F 39.1 °F 41.2 °F 84% 29.76 in 10.0 mi West 15.0 mph 19.6 mph N/A   Overcast
1:35 PM 45.3 °F 39.0 °F 40.3 °F 83% 29.76 in 10.0 mi West 13.8 mph 21.9 mph N/A   Overcast
1:55 PM 45.3 °F 38.7 °F 40.1 °F 82% 29.77 in 10.0 mi West 15.0 mph 19.6 mph N/A   Overcast
2:15 PM 45.1 °F 39.9 °F 39.4 °F 80% 29.78 in 10.0 mi WNW 10.4 mph 21.9 mph N/A   Overcast
2:35 PM 44.6 °F 38.8 °F 38.8 °F 80% 29.77 in 10.0 mi West 11.5 mph 20.7 mph N/A   Overcast
2:55 PM 44.6 °F 38.1 °F 38.3 °F 79% 29.77 in 10.0 mi West 13.8 mph 19.6 mph N/A   Overcast
3:15 PM 44.6 °F 38.8 °F 38.5 °F 79% 29.77 in 10.0 mi West 11.5 mph 18.4 mph N/A   Overcast
3:35 PM 44.2 °F 37.0 °F 37.9 °F 79% 29.76 in 10.0 mi West 16.1 mph 19.6 mph N/A   Overcast
3:55 PM 43.9 °F 37.5 °F 37.8 °F 79% 29.76 in 10.0 mi West 12.7 mph - N/A   Overcast
4:15 PM 43.7 °F 37.7 °F 37.6 °F 79% 29.76 in 10.0 mi West 11.5 mph 21.9 mph N/A   Overcast
4:35 PM 43.7 °F 37.3 °F 37.4 °F 78% 29.76 in 10.0 mi West 12.7 mph 23.0 mph N/A   Overcast
4:55 PM 43.7 °F 37.3 °F 37.4 °F 78% 29.76 in 10.0 mi West 12.7 mph 17.3 mph N/A   Overcast
5:15 PM 43.5 °F 37.5 °F 37.4 °F 79% 29.77 in 10.0 mi West 11.5 mph 20.7 mph N/A   Overcast
5:35 PM 43.2 °F 36.2 °F 37.4 °F 80% 29.77 in 10.0 mi West 13.8 mph 21.9 mph N/A   Overcast
5:55 PM 42.8 °F 35.8 °F 37.0 °F 80% 29.77 in 10.0 mi West 13.8 mph 19.6 mph N/A   Overcast
6:15 PM 43.0 °F 36.0 °F 36.9 °F 79% 29.77 in 10.0 mi West 13.8 mph 19.6 mph N/A   Overcast
6:35 PM 42.8 °F 35.8 °F 36.5 °F 78% 29.76 in 10.0 mi WNW 13.8 mph 21.9 mph N/A   Overcast
6:55 PM 42.8 °F 36.2 °F 36.1 °F 77% 29.77 in 10.0 mi West 12.7 mph 21.9 mph N/A   Overcast
7:15 PM 42.1 °F 35.2 °F 36.5 °F 81% 29.78 in 10.0 mi West 12.7 mph 21.9 mph N/A Rain Light Rain
7:35 PM 41.0 °F 33.5 °F 36.1 °F 83% 29.78 in 7.0 mi West 13.8 mph 20.7 mph N/A   Drizzle
7:55 PM 40.1 °F 33.2 °F 36.0 °F 85% 29.79 in 5.0 mi West 11.5 mph 17.3 mph N/A Rain Light Rain
8:15 PM 39.2 °F 32.0 °F 36.0 °F 88% 29.79 in 5.0 mi West 11.5 mph 18.4 mph 0.02 in Rain Light Rain
8:35 PM 39.0 °F 31.8 °F 36.1 °F 89% 29.79 in 7.0 mi WNW 11.5 mph - 0.03 in Rain Light Rain
8:55 PM 38.3 °F 30.1 °F 35.6 °F 90% 29.79 in 3.0 mi West 13.8 mph 18.4 mph 0.06 in Rain Light Rain
9:15 PM 37.8 °F 30.2 °F 35.1 °F 90% 29.79 in 3.0 mi WNW 11.5 mph 20.7 mph 0.02 in Rain , Thunderstorm Thunderstorms and Rain
9:35 PM 37.2 °F 28.7 °F 34.7 °F 91% 29.79 in 4.0 mi West 13.8 mph 19.6 mph 0.05 in Rain Light Rain
9:55 PM 37.4 °F 28.9 °F 34.2 °F 88% 29.79 in 10.0 mi West 13.8 mph 24.2 mph 0.05 in Rain Light Rain
10:15 PM 36.7 °F 28.0 °F 34.0 °F 90% 29.79 in 7.0 mi West 13.8 mph 21.9 mph N/A Rain Light Rain
10:35 PM 34.9 °F 27.7 °F 33.8 °F 96% 29.79 in 3.0 mi WNW 9.2 mph 17.3 mph 0.03 in Rain Light Rain
10:55 PM 34.7 °F 26.4 °F 33.8 °F 97% 29.77 in 3.0 mi West 11.5 mph 19.6 mph 0.09 in Snow Light Snow
11:15 PM 34.9 °F 26.2 °F 33.8 °F 96% 29.76 in 5.0 mi West 12.7 mph 18.4 mph 0.04 in Snow Light Snow
11:35 PM 35.1 °F 25.5 °F 33.4 °F 94% 29.76 in 5.0 mi West 15.0 mph 20.7 mph 0.04 in Rain Light Rain
11:55 PM 36.0 °F 27.5 °F 33.8 °F 92% 29.75 in 10.0 mi West 12.7 mph 19.6 mph 0.04 in   Overcast